Cape Baltic — 9VHL8 — position and weather

sailwx.info

Track history (hours):
 
Tides and Currents Weather Stations Pressure Air Temp Water Temp Dewpoint Dewpoint Depression Visibility Wind Speed Wind Dir Waves Ship Positions

Cape Baltic

Last reported at 2017-Oct-16 16:59 UTC. Time now 2017-Oct-17 02:21 UTC.
Position N 35°58' W 005°36'.

Length 289 m; draft 9.3 m.

Type: Ship. MMSI: 565030000.

Date/timePositionNaut miles runAvg speedWind from/ knotsBaromVisibWave heightAir tempDewpointWater temp
2017-Oct-16 16:59N 35°58' W 005°36'510.2
2017-Oct-16 16:30N 35°59' W 005°30'510.7
2017-Oct-16 16:00N 36°01' W 005°24'612.5
2017-Oct-16 15:30N 36°03' W 005°16'611.6
2017-Oct-16 14:59N 36°04' W 005°09'20212.3
2017-Oct-15 22:34N 36°29' W 001°01'1413.5
2017-Oct-15 21:32N 36°31' W 000°44'013.5
2017-Oct-15 21:30N 36°31' W 000°43'713.3
2017-Oct-15 21:00N 36°33' W 000°35'713.1
2017-Oct-15 20:30N 36°34' W 000°27'712.9
2017-Oct-15 19:59N 36°36' W 000°19'1813.2
2017-Oct-15 18:39N 36°41' E 000°02'313.5
2017-Oct-15 18:28N 36°42' E 000°05'613.4
2017-Oct-15 18:00N 36°44' E 000°12'713.1
2017-Oct-15 17:30N 36°44' E 000°20'713.0
2017-Oct-15 16:58N 36°46' E 000°29'613.0
2017-Oct-15 16:30N 36°47' E 000°36'713.3
2017-Oct-15 16:01N 36°49' E 000°44'713.5
2017-Oct-15 15:31N 36°50' E 000°52'713.4
2017-Oct-15 15:00N 36°51' E 001°01'1313.4
2017-Oct-15 14:00N 36°55' E 001°17'713.1
2017-Oct-15 13:29N 36°56' E 001°25'613.1
2017-Oct-15 13:00N 36°58' E 001°33'713.2
2017-Oct-15 12:30N 36°59' E 001°41'713.2
2017-Oct-15 12:01N 37°01' E 001°49'713.1
2017-Oct-15 11:29N 37°03' E 001°57'713.2
2017-Oct-15 10:58N 37°04' E 002°05'913.2
2017-Oct-15 10:19N 37°06' E 002°16'1013.1
2017-Oct-15 09:35N 37°08' E 002°27'113.3
2017-Oct-15 09:29N 37°08' E 002°29'8113.0
2017-Oct-15 03:15N 37°20' E 004°09'1012.8
2017-Oct-15 02:27N 37°21' E 004°22'1712.9
2017-Oct-15 01:07N 37°23' E 004°44'313.3
2017-Oct-15 00:55N 37°23' E 004°47'613.3
2017-Oct-15 00:30N 37°24' E 004°54'38712.8
2017-Oct-13 18:09N 36°50' E 012°57'1412.4
2017-Oct-13 17:03N 36°44' E 013°13'212.7
2017-Oct-13 16:56N 36°44' E 013°15'612.8
2017-Oct-13 16:30N 36°42' E 013°21'612.6
2017-Oct-13 16:00N 36°39' E 013°29'612.6
2017-Oct-13 15:31N 36°36' E 013°35'612.7
2017-Oct-13 15:01N 36°34' E 013°43'712.7
2017-Oct-13 14:30N 36°31' E 013°50'612.9
2017-Oct-13 14:00N 36°29' E 013°57'712.9
2017-Oct-13 13:30N 36°27' E 014°05'612.8
2017-Oct-13 13:00N 36°24' E 014°12'612.9
2017-Oct-13 12:30N 36°21' E 014°19'713.0
2017-Oct-13 12:00N 36°19' E 014°27'713.0
2017-Oct-13 11:30N 36°17' E 014°34'612.9
2017-Oct-13 11:00N 36°15' E 014°42'612.0
2017-Oct-13 10:30N 36°12' E 014°49'  
2017-Oct-07 00:52N 31°08' E 029°49'  
Track history (hours):
 
Tides and Currents Weather Stations Pressure Air Temp Water Temp Dewpoint Dewpoint Depression Visibility Wind Speed Wind Dir Waves Ship Positions

Cape Baltic

Last reported at 2017-Oct-16 16:59 UTC. Time now 2017-Oct-17 02:21 UTC.
Position N 35°58' W 005°36'.

Length 289 m; draft 9.3 m.

Type: Ship. MMSI: 565030000.

Date/timePositionNaut miles runAvg speedWind from/ knotsBaromVisibWave heightAir tempDewpointWater temp
2017-Oct-16 16:59N 35°58' W 005°36'510.2
2017-Oct-16 16:30N 35°59' W 005°30'510.7
2017-Oct-16 16:00N 36°01' W 005°24'612.5
2017-Oct-16 15:30N 36°03' W 005°16'611.6
2017-Oct-16 14:59N 36°04' W 005°09'20212.3
2017-Oct-15 22:34N 36°29' W 001°01'1413.5
2017-Oct-15 21:32N 36°31' W 000°44'013.5
2017-Oct-15 21:30N 36°31' W 000°43'713.3
2017-Oct-15 21:00N 36°33' W 000°35'713.1
2017-Oct-15 20:30N 36°34' W 000°27'712.9
2017-Oct-15 19:59N 36°36' W 000°19'1813.2
2017-Oct-15 18:39N 36°41' E 000°02'313.5
2017-Oct-15 18:28N 36°42' E 000°05'613.4
2017-Oct-15 18:00N 36°44' E 000°12'713.1
2017-Oct-15 17:30N 36°44' E 000°20'713.0
2017-Oct-15 16:58N 36°46' E 000°29'613.0
2017-Oct-15 16:30N 36°47' E 000°36'713.3
2017-Oct-15 16:01N 36°49' E 000°44'713.5
2017-Oct-15 15:31N 36°50' E 000°52'713.4
2017-Oct-15 15:00N 36°51' E 001°01'1313.4
2017-Oct-15 14:00N 36°55' E 001°17'713.1
2017-Oct-15 13:29N 36°56' E 001°25'613.1
2017-Oct-15 13:00N 36°58' E 001°33'713.2
2017-Oct-15 12:30N 36°59' E 001°41'713.2
2017-Oct-15 12:01N 37°01' E 001°49'713.1
2017-Oct-15 11:29N 37°03' E 001°57'713.2
2017-Oct-15 10:58N 37°04' E 002°05'913.2
2017-Oct-15 10:19N 37°06' E 002°16'1013.1
2017-Oct-15 09:35N 37°08' E 002°27'113.3
2017-Oct-15 09:29N 37°08' E 002°29'8113.0
2017-Oct-15 03:15N 37°20' E 004°09'1012.8
2017-Oct-15 02:27N 37°21' E 004°22'1712.9
2017-Oct-15 01:07N 37°23' E 004°44'313.3
2017-Oct-15 00:55N 37°23' E 004°47'613.3
2017-Oct-15 00:30N 37°24' E 004°54'38712.8
2017-Oct-13 18:09N 36°50' E 012°57'1412.4
2017-Oct-13 17:03N 36°44' E 013°13'212.7
2017-Oct-13 16:56N 36°44' E 013°15'612.8
2017-Oct-13 16:30N 36°42' E 013°21'612.6
2017-Oct-13 16:00N 36°39' E 013°29'612.6
2017-Oct-13 15:31N 36°36' E 013°35'612.7
2017-Oct-13 15:01N 36°34' E 013°43'712.7
2017-Oct-13 14:30N 36°31' E 013°50'612.9
2017-Oct-13 14:00N 36°29' E 013°57'712.9
2017-Oct-13 13:30N 36°27' E 014°05'612.8
2017-Oct-13 13:00N 36°24' E 014°12'612.9
2017-Oct-13 12:30N 36°21' E 014°19'713.0
2017-Oct-13 12:00N 36°19' E 014°27'713.0
2017-Oct-13 11:30N 36°17' E 014°34'612.9
2017-Oct-13 11:00N 36°15' E 014°42'612.0
2017-Oct-13 10:30N 36°12' E 014°49'  
2017-Oct-07 00:52N 31°08' E 029°49'  

Dump ship's entire track history